Home > Weather > Royan > Past weeks

Flag for France Weather for the Past 2 Weeks in Royan, Poitou-Charentes, France

Now
54 °F

Clear.


Feels Like: 51 °F
Forecast: 58 / 68 °F
Wind: 8 mph from Southeast

Location: Cognac Airport

Current Time: May 6, 2016 at 6:12:49 AM

Latest Report: May 6, 2016 at 5:30 AM


Visibility: 10 mi

Pressure: 29.83 "Hg

Humidity: 63%

Dew Point: 41 °F

Location of RoyanLocation

Historic Weather in Royan — Graph

°F

Royan Temperature Yesterday

Maximum temperature yesterday: 82 °F (at 5:00 PM)
Minimum temperature yesterday: 46 °F (at 5:30 AM)
Average temperature yesterday: 65 °F

High & Low Weather Summary for the Past Weeks

 TemperatureHumidityPressure
High82 °F (May 5, 5:00 PM)100% (Apr 22, 6:00 AM)30.42 "Hg (Apr 22, 6:00 AM)
Low36 °F (Apr 25, 7:00 AM)16% (May 5, 4:00 PM)29.80 "Hg (May 5, 5:30 PM)
Average53 °F65%30.11 "Hg
* Reported Apr 21 4:00 AM — May 6 4:30 AM, Royan, Weather by CustomWeather, © 2016

Note: Actual official high and low records may vary slightly from our data, if they occured in-between our weather recording intervals... More about our weather records

Advertising

Royan Weather History for the Previous 24 Hours

Scroll right to see more
 ConditionsComfort  
Time TempWeatherWind HumidityBarometerVisibility
4:30 AM
Fri, May 6
55 °FClear.6 mph55%29.83 "Hg10 mi
4:00 AM57 °FClear.7 mph55%29.83 "Hg10 mi
3:30 AM57 °FClear.9 mph55%29.83 "Hg10 mi
3:00 AM59 °FClear.10 mph51%29.83 "Hg10 mi
2:30 AM61 °FClear.13 mph48%29.83 "Hg10 mi
2:00 AM61 °FClear.10 mph45%29.86 "Hg10 mi
1:30 AM61 °FClear.8 mph45%29.86 "Hg10 mi
1:00 AM64 °FClear.12 mph37%29.83 "Hg10 mi
12:30 AM66 °FClear.17 mph32%29.83 "Hg10 mi
12:00 AM68 °FClear.16 mph35%29.83 "Hg10 mi
11:30 PM
Thu, May 5
68 °FClear.15 mph40%29.83 "Hg10 mi
11:00 PM66 °FClear.8 mph46%29.83 "Hg10 mi
10:30 PM68 °FClear.9 mph49%29.83 "Hg10 mi
10:00 PM68 °FSunny.8 mph49%29.83 "Hg10 mi
9:30 PM72 °FPassing clouds.7 mph41%29.80 "HgN/A
9:00 PM75 °FSunny.3 mph27%29.80 "Hg10 mi
8:30 PM77 °FSunny.6 mph26%29.80 "Hg10 mi
8:00 PM79 °FSunny.5 mph28%29.80 "Hg10 mi
7:30 PM81 °FSunny.7 mph23%29.80 "Hg10 mi
7:00 PM81 °FPassing clouds.8 mph20%29.80 "HgN/A
6:30 PM82 °FPassing clouds.8 mph17%29.80 "HgN/A
6:00 PM82 °FSunny.8 mph16%29.80 "Hg10 mi
5:30 PM82 °FPassing clouds.7 mph16%29.80 "HgN/A
5:00 PM82 °FSunny.10 mph16%29.83 "Hg10 mi
4:30 PM81 °FPassing clouds.10 mph16%29.83 "HgN/A
4:00 PM81 °FSunny.14 mph16%29.83 "Hg10 mi
3:30 PM81 °FPassing clouds.10 mph18%29.86 "HgN/A
3:00 PM79 °FPassing clouds.13 mph20%29.86 "HgN/A
2:30 PM79 °FPassing clouds.12 mph21%29.86 "HgN/A
2:00 PM77 °FPassing clouds.9 mph28%29.89 "HgN/A
1:30 PM75 °FPassing clouds.10 mph29%29.89 "HgN/A
1:00 PM73 °FPassing clouds.10 mph29%29.89 "HgN/A
12:30 PM72 °FPassing clouds.9 mph33%29.92 "HgN/A
12:00 PM70 °FSunny.10 mph38%29.92 "Hg10 mi
11:30 AM68 °FPassing clouds.9 mph38%29.92 "HgN/A
11:00 AM66 °FPassing clouds.8 mph40%29.95 "HgN/A
10:30 AM63 °FPassing clouds.8 mph42%29.95 "HgN/A
10:00 AM59 °FSunny.8 mph48%29.95 "Hg10 mi
9:30 AM57 °FSunny.7 mph48%29.98 "Hg10 mi
9:00 AM54 °FSunny.6 mph54%29.98 "Hg10 mi
8:30 AM52 °FSunny.7 mph58%29.98 "Hg10 mi
8:00 AM50 °FSunny.2 mph58%29.98 "Hg10 mi
7:30 AM46 °FClear.7 mph66%29.98 "Hg10 mi
7:00 AM46 °FClear.6 mph62%29.98 "Hg10 mi
6:30 AM46 °FClear.5 mph62%29.98 "Hg10 mi
6:00 AM46 °FClear.No wind66%29.98 "Hg10 mi
Weather by CustomWeather, © 2016

See weather overviewHow to use our weather pages